Wind_Speed
101 101 102 99 102 103 104 108 108 103 107 115 120 121 123 123 130 132 137 141 140 142 141 133 125 126 126 129 133 132 135 136 136 134 132 131 125 123 122 122 123 121 119
104 105 99 105 112 110 111 110 110 114 123 126 131 128 132 136 142 145 145 141 137 133 131 130 131 134 133 140 139 138 139 135 135 132 126 124 121 117 119 118 116 115 115
108 109 112 114 112 114 117 122 123 129 133 133 135 138 143 146 146 144 140 139 139 135 138 140 141 141 138 140 135 132 127 123 122 117 111 112 110 111 112 115 115 116 116
111 113 112 112 117 120 128 129 135 140 137 139 143 148 150 145 141 142 143 142 140 142 142 143 145 143 142 137 125 114 108 101 98 95 97 97 96 97 99 103 109 115 117
115 116 118 123 128 130 133 142 141 145 149 149 142 138 140 142 145 145 148 147 146 145 145 146 142 139 132 126 116 105 95 89 86 89 90 95 94 94 94 96 102 102 109
120 124 129 131 133 137 140 144 142 141 137 137 139 143 145 146 146 149 149 151 150 146 143 141 136 130 120 119 115 115 103 91 91 90 91 88 88 90 91 91 104 103 102
127 128 129 134 139 139 137 135 136 138 139 143 146 149 147 148 149 150 151 151 144 141 139 131 127 124 123 125 122 116 116 110 98 89 90 88 88 88 89 94 97 102 100
135 134 133 133 134 134 135 137 140 141 144 146 147 151 149 152 151 153 149 144 141 132 128 128 127 129 132 130 129 126 122 116 108 101 93 90 88 87 88 92 96 98 96
128 128 129 132 135 139 139 141 142 145 143 144 147 145 140 140 138 133 137 133 132 132 130 130 134 131 132 134 132 127 119 112 107 100 94 93 88 88 86 91 96 95 98
129 131 134 137 139 143 145 145 139 142 141 145 141 140 134 127 125 125 131 134 134 136 135 137 137 136 136 137 132 123 112 111 107 101 97 95 92 89 87 90 93 94 93
135 137 141 144 144 137 137 135 132 134 135 130 122 120 120 123 125 129 133 140 142 137 138 138 140 140 136 131 128 122 113 105 100 98 95 93 90 91 90 90 92 92 93
139 138 135 132 129 127 128 122 117 114 111 112 114 116 122 128 134 136 138 141 145 148 145 142 137 131 129 123 120 113 104 98 95 93 93 92 88 87 89 91 90 92 90
123 121 121 118 110 104 99 101 104 108 112 116 119 121 122 128 134 139 141 142 146 148 144 137 129 124 115 108 105 101 97 90 90 89 88 88 86 86 88 89 89 91 93
93 86 87 87 90 94 97 100 103 108 114 120 125 129 130 131 135 138 139 138 137 136 136 131 126 114 107 101 99 97 92 85 85 85 85 85 85 84 85 88 87 91 92
72 76 80 84 86 87 91 97 101 108 114 120 125 127 130 129 130 132 130 128 130 129 124 118 111 106 98 95 93 90 86 80 80 81 81 81 81 82 84 86 87 87 89
69 73 77 79 82 87 91 97 106 112 115 120 124 126 126 130 128 125 125 125 123 118 111 104 98 96 92 88 87 85 81 75 76 76 77 76 76 78 81 84 86 86 88
71 77 82 85 92 95 98 101 100 109 119 122 125 127 129 127 127 126 122 116 114 108 102 96 93 90 86 82 81 79 76 71 72 71 70 71 72 74 77 79 81 82 83
79 84 87 92 96 101 104 107 113 112 110 113 123 127 127 126 125 121 114 107 100 101 96 90 87 83 80 77 76 74 71 66 68 68 67 67 69 71 73 76 79 80 79
89 93 98 102 104 109 113 115 118 118 117 116 115 116 120 118 118 114 108 103 96 91 89 87 81 77 74 73 72 69 67 64 64 65 64 65 67 69 71 74 77 80 80
98 100 104 106 109 115 120 121 122 120 118 118 116 116 113 109 105 104 102 99 94 87 81 79 76 72 70 69 67 65 63 62 61 62 62 63 65 67 71 73 75 76 77
101 105 109 112 116 120 123 122 119 118 118 118 118 115 109 103 96 92 90 90 87 83 77 73 71 68 66 65 63 61 60 60 60 60 61 62 64 66 68 70 72 73 74
104 110 114 117 120 121 122 123 122 120 120 117 111 108 104 99 93 88 84 82 79 76 73 69 66 64 63 62 61 59 58 59 59 60 60 61 62 64 66 67 69 70 71
111 115 119 121 121 122 123 124 122 121 119 112 106 101 98 93 89 85 81 77 73 71 68 65 63 61 59 59 59 58 57 58 58 59 58 59 61 62 64 65 66 67 68
115 119 118 119 121 121 120 120 121 119 114 107 102 96 91 86 83 80 78 74 70 67 65 62 60 59 57 56 56 56 56 56 57 58 59 59 61 62 63 64 65 65 66
118 120 117 117 118 118 118 120 119 114 109 101 95 90 86 82 78 74 72 69 66 63 61 59 57 56 55 54 54 54 54 55 56 57 58 58 59 60 61 62 62 63 64
117 117 117 116 116 118 122 120 116 110 102 96 90 86 82 79 74 70 66 64 62 59 58 56 55 54 53 52 52 52 52 53 54 55 55 56 58 59 60 60 61 61 62
Wind_Direction
274 277 277 276 277 276 277 283 278 281 279 282 285 282 283 283 285 286 287 288 289 289 292 295 294 295 294 296 293 290 289 287 287 287 285 284 283 280 278 278 278 276 277
269 273 269 273 279 278 278 277 278 278 281 283 284 284 285 285 288 292 294 294 293 293 293 293 293 294 293 292 291 291 291 290 289 288 286 284 282 280 278 276 276 276 275
272 272 274 276 275 275 275 276 278 280 287 286 285 286 288 291 291 292 292 294 294 295 295 294 294 294 291 291 291 291 290 290 288 288 287 286 285 282 279 276 276 276 276
273 273 274 273 273 274 277 279 281 287 286 286 287 287 289 290 292 293 294 295 295 295 293 292 292 293 294 293 292 292 290 289 290 292 291 290 289 286 283 280 278 277 276
272 269 269 270 273 275 276 281 284 284 287 288 289 289 293 294 296 296 297 295 296 296 296 297 297 297 300 300 299 296 296 291 290 291 290 288 287 285 285 282 280 280 278
272 271 270 271 273 277 281 285 286 287 288 291 293 295 297 297 297 297 296 297 297 297 297 300 301 299 300 300 300 299 298 293 292 292 284 289 287 284 281 278 279 281 280
275 274 274 275 278 284 285 286 288 291 293 294 295 296 296 296 296 296 295 298 299 300 300 300 300 301 300 300 298 297 300 300 297 292 293 284 283 281 279 276 275 278 281
276 277 279 281 284 286 288 290 291 293 294 293 294 295 296 297 296 297 297 299 300 300 298 297 298 300 299 298 298 299 298 298 298 296 292 285 281 277 275 274 275 276 277
280 281 283 285 287 288 289 290 291 290 291 292 297 297 296 296 297 296 295 295 297 297 296 295 296 296 297 297 298 298 297 297 295 292 286 283 279 276 271 271 272 273 275
282 284 285 287 288 288 289 289 291 291 292 293 294 295 295 295 294 293 293 293 293 295 296 296 295 296 297 297 296 295 295 293 290 287 282 281 278 275 272 268 268 269 270
283 285 286 286 287 287 288 290 292 292 291 291 292 293 293 292 292 292 293 294 295 295 295 296 295 296 297 297 296 295 293 288 285 281 279 277 273 273 271 269 267 267 268
284 285 286 287 288 288 288 292 292 291 292 291 291 291 292 292 292 293 293 294 295 296 296 297 298 297 298 296 293 290 287 284 280 278 275 273 271 267 265 266 267 267 268
282 284 284 285 288 289 290 292 293 292 292 291 291 291 291 291 292 294 293 294 295 296 297 298 299 299 296 292 291 288 285 282 278 275 273 270 267 263 262 262 262 262 265
284 284 287 290 291 293 294 293 292 292 292 291 290 291 292 292 293 293 293 294 294 295 297 299 298 296 294 292 289 287 284 281 277 273 270 266 264 261 260 261 260 260 264
288 290 292 292 292 294 296 298 296 295 293 292 292 293 293 294 294 295 296 296 296 296 296 296 295 294 293 290 287 285 283 280 276 272 268 265 264 261 259 258 258 259 261
293 296 300 300 300 300 301 304 303 300 299 300 299 298 298 299 299 299 299 299 298 297 297 296 295 293 291 288 285 283 281 278 274 272 269 266 263 261 259 258 258 259 261
302 303 305 305 307 305 303 304 305 309 308 305 303 302 302 303 302 300 299 299 298 297 297 296 294 292 290 287 284 282 280 277 272 271 269 265 263 261 260 259 260 260 262
309 309 308 306 307 307 307 307 308 305 303 305 305 305 304 303 301 300 299 299 299 298 297 294 292 290 287 284 282 281 279 276 272 269 267 265 262 260 260 258 259 261 261
310 310 310 309 309 309 309 309 308 307 307 306 303 303 302 303 303 301 301 300 298 296 295 293 291 288 286 284 281 280 278 275 271 268 266 263 261 260 259 257 258 259 260
308 309 310 309 308 309 309 309 309 309 307 305 305 305 306 304 301 300 299 299 298 297 294 291 290 287 285 283 281 279 276 274 270 268 265 262 261 260 259 258 258 259 261
308 309 309 309 309 309 309 308 307 307 307 308 309 308 306 304 302 300 299 298 297 296 294 291 289 287 284 281 279 277 275 273 269 266 264 261 259 259 259 260 260 261 262
309 309 310 309 309 308 307 308 310 310 309 311 311 309 307 306 304 302 300 298 296 294 293 291 289 286 284 281 279 276 274 272 269 266 264 262 259 259 259 259 260 261 262
311 311 311 308 308 310 310 311 310 311 312 313 311 310 308 306 305 303 301 299 297 295 293 291 288 285 283 281 279 276 274 271 269 267 263 262 261 260 259 260 260 261 262
311 310 310 310 310 310 310 311 311 314 315 314 313 311 309 307 305 303 301 300 298 295 293 291 288 285 283 280 278 276 273 271 269 267 264 262 260 259 259 260 261 262 263
311 311 310 310 311 312 312 313 315 316 315 314 313 311 310 308 306 304 301 300 298 296 293 291 288 285 283 280 277 275 273 271 269 267 266 263 262 261 261 261 261 263 263
311 311 312 313 313 313 314 316 316 316 315 315 313 312 311 309 307 304 302 301 299 296 294 291 288 285 283 280 277 275 272 270 268 267 266 265 263 262 261 261 261 262 262
Height
10646 10643 10639 10637 10634 10629 10623 10618 10613 10606 10602 10595 10590 10582 10572 10563 10552 10545 10538 10532 10524 10516 10503 10492 10484 10471 10466 10455 10443 10434 10420 10410 10402 10403 10395 10383 10380 10373 10367 10361 10358 10356 10354
10631 10626 10622 10617 10612 10607 10600 10594 10589 10582 10575 10568 10560 10554 10545 10533 10521 10508 10501 10493 10486 10478 10467 10457 10448 10435 10430 10416 10403 10395 10378 10363 10353 10351 10347 10341 10335 10330 10326 10322 10318 10316 10315
10610 10605 10599 10595 10587 10581 10574 10568 10561 10555 10546 10538 10530 10522 10513 10501 10488 10476 10464 10456 10447 10437 10426 10416 10405 10397 10390 10375 10366 10356 10340 10323 10313 10306 10303 10301 10298 10292 10285 10283 10279 10276 10276
10588 10583 10577 10571 10565 10558 10551 10543 10536 10526 10518 10509 10499 10490 10479 10467 10451 10439 10427 10416 10407 10399 10386 10373 10361 10351 10340 10329 10324 10320 10305 10291 10282 10275 10270 10264 10262 10259 10253 10248 10244 10238 10236
10564 10560 10553 10547 10541 10534 10525 10516 10506 10496 10488 10478 10468 10455 10441 10428 10411 10396 10385 10376 10368 10358 10345 10330 10321 10309 10296 10285 10277 10275 10269 10262 10258 10250 10245 10235 10232 10227 10222 10215 10207 10206 10201
10540 10535 10528 10522 10515 10507 10498 10488 10476 10466 10458 10444 10432 10420 10407 10391 10373 10356 10346 10337 10331 10320 10308 10292 10283 10276 10263 10252 10241 10233 10233 10229 10224 10217 10212 10210 10204 10198 10193 10190 10176 10172 10173
10512 10508 10503 10496 10488 10480 10470 10459 10448 10436 10423 10411 10397 10384 10373 10356 10340 10324 10309 10300 10290 10280 10270 10260 10251 10241 10231 10220 10210 10201 10198 10198 10192 10187 10182 10181 10174 10171 10164 10160 10157 10147 10142
10488 10483 10475 10467 10458 10449 10439 10429 10415 10406 10392 10380 10365 10351 10339 10319 10303 10287 10271 10259 10251 10244 10235 10227 10218 10211 10198 10187 10175 10170 10166 10162 10158 10150 10148 10145 10142 10140 10136 10130 10126 10123 10122
10460 10452 10446 10436 10429 10417 10407 10396 10384 10373 10360 10345 10330 10317 10304 10289 10270 10255 10240 10228 10221 10214 10205 10196 10184 10177 10168 10150 10143 10134 10130 10129 10121 10116 10112 10110 10111 10107 10108 10103 10099 10099 10095
10433 10425 10416 10408 10399 10386 10375 10360 10350 10335 10327 10314 10301 10286 10271 10260 10242 10225 10209 10194 10190 10182 10177 10162 10152 10140 10131 10117 10103 10098 10096 10092 10084 10081 10077 10075 10072 10074 10076 10075 10073 10073 10072
10402 10395 10386 10375 10364 10352 10340 10327 10317 10304 10294 10283 10273 10257 10241 10225 10215 10197 10180 10162 10146 10142 10135 10131 10119 10105 10093 10079 10061 10053 10055 10049 10049 10044 10040 10040 10041 10039 10040 10039 10041 10041 10044
10376 10365 10352 10342 10334 10323 10311 10297 10284 10272 10262 10251 10240 10230 10211 10193 10177 10165 10149 10130 10110 10093 10090 10081 10075 10066 10054 10042 10024 10013 10011 10010 10008 10006 10004 10005 10006 10007 10006 10006 10008 10010 10013
10346 10337 10329 10317 10304 10293 10282 10270 10255 10242 10229 10217 10204 10195 10186 10166 10148 10130 10112 10096 10079 10057 10042 10032 10022 10020 10009 9999 9986 9976 9971 9974 9969 9969 9968 9970 9972 9972 9975 9978 9981 9982 9985
10321 10311 10302 10291 10279 10266 10253 10240 10228 10213 10200 10183 10169 10157 10146 10134 10115 10097 10080 10065 10048 10026 10006 9997 9984 9974 9968 9958 9949 9940 9937 9939 9935 9933 9935 9936 9938 9941 9944 9948 9954 9955 9958
10299 10289 10278 10268 10257 10245 10230 10215 10199 10179 10162 10149 10133 10119 10104 10100 10081 10055 10037 10024 10008 9990 9976 9964 9952 9937 9932 9924 9914 9908 9907 9907 9904 9901 9903 9906 9910 9914 9917 9920 9925 9929 9931
10278 10267 10255 10244 10232 10219 10208 10193 10164 10147 10128 10108 10091 10075 10067 10039 10027 10015 9998 9981 9962 9947 9939 9927 9919 9906 9897 9891 9883 9878 9878 9880 9876 9874 9877 9881 9885 9888 9891 9894 9897 9901 9906
10257 10246 10232 10220 10206 10192 10176 10162 10155 10132 10093 10073 10053 10034 10014 10000 9982 9966 9955 9946 9927 9914 9901 9894 9885 9875 9868 9862 9855 9851 9851 9853 9850 9850 9852 9856 9859 9862 9864 9868 9872 9878 9881
10233 10222 10209 10193 10178 10161 10145 10128 10112 10098 10088 10070 10028 9996 9980 9963 9942 9927 9915 9907 9898 9877 9869 9863 9854 9847 9839 9833 9829 9827 9825 9827 9826 9826 9827 9830 9834 9838 9840 9843 9846 9851 9857
10209 10195 10180 10164 10147 10129 10112 10093 10074 10056 10038 10020 10006 9989 9957 9938 9913 9891 9877 9869 9865 9857 9842 9830 9826 9820 9813 9807 9804 9804 9802 9803 9802 9802 9805 9806 9809 9813 9816 9819 9823 9827 9831
10180 10167 10151 10134 10115 10097 10076 10057 10038 10018 10001 9983 9963 9941 9928 9912 9892 9868 9849 9836 9827 9823 9818 9807 9799 9794 9787 9782 9780 9780 9779 9778 9779 9780 9782 9784 9786 9789 9792 9795 9798 9802 9805
10152 10135 10118 10100 10081 10062 10042 10022 10005 9987 9966 9947 9924 9902 9884 9871 9862 9846 9829 9812 9801 9793 9787 9781 9774 9768 9763 9759 9758 9758 9756 9755 9755 9756 9758 9760 9763 9766 9768 9771 9774 9777 9781
10123 10105 10086 10068 10049 10031 10011 9990 9969 9948 9928 9910 9892 9869 9848 9833 9822 9812 9801 9789 9778 9769 9762 9756 9751 9745 9741 9737 9735 9735 9734 9732 9732 9733 9734 9737 9740 9742 9745 9748 9751 9754 9758
10093 10075 10054 10035 10015 9996 9975 9954 9933 9912 9893 9873 9855 9838 9821 9805 9791 9780 9770 9761 9753 9744 9738 9732 9727 9723 9720 9716 9713 9712 9712 9711 9711 9712 9714 9715 9717 9720 9722 9725 9729 9732 9735
10060 10042 10021 10001 9982 9964 9943 9922 9900 9879 9859 9841 9824 9808 9793 9780 9767 9754 9744 9735 9728 9720 9714 9710 9705 9701 9698 9695 9693 9691 9690 9691 9691 9691 9693 9694 9696 9697 9699 9701 9705 9709 9712
10026 10007 9987 9970 9951 9931 9911 9889 9868 9848 9828 9811 9794 9779 9766 9754 9743 9732 9721 9712 9704 9697 9692 9687 9683 9680 9677 9675 9673 9671 9670 9670 9671 9671 9672 9674 9675 9677 9679 9682 9685 9687 9689
9994 9976 9958 9938 9917 9896 9876 9858 9837 9817 9800 9784 9768 9754 9741 9729 9718 9708 9699 9691 9683 9676 9670 9666 9662 9659 9656 9654 9653 9651 9650 9651 9651 9652 9653 9655 9656 9657 9659 9661 9664 9666 9668